H1 CPF 2 NER 2025 11 26 9 330 01 glonass142 H2 2001801 9142 45358 2025 11 26 0 0 0 2025 11 29 23 45 0 900 1 1 0 0 0 1 H9 10 0 61005 0.00000 0 -10908198.530 -20590712.864 -10379588.488 10 0 61005 900.00000 0 -11361899.421 -21602530.162 -7424224.025 10 0 61005 1800.00000 0 -11751444.899 -22231869.576 -4324702.170 10 0 61005 2700.00000 0 -12020926.737 -22481470.659 -1141237.397 10 0 61005 3600.00000 0 -12117465.215 -22366973.718 2064371.948 10 0 61005 4500.00000 0 -11993647.192 -21916113.966 5229942.953 10 0 61005 5400.00000 0 -11609742.100 -21167427.680 8294111.449 10 0 61005 6300.00000 0 -10935602.534 -20168526.091 11197516.075 10 0 61005 7200.00000 0 -9952169.590 -18974010.559 13883940.446 10 0 61005 8100.00000 0 -8652519.766 -17643117.085 16301391.938 10 0 61005 9000.00000 0 -7042409.461 -16237189.100 18403097.126 10 0 61005 9900.00000 0 -5140293.985 -14817084.071 20148395.652 10 0 61005 10800.00000 0 -2976819.671 -13440621.784 21503516.464 10 0 61005 11700.00000 0 -593809.266 -12160180.029 22442222.590 10 0 61005 12600.00000 0 1957218.478 -11020537.056 22946313.025 10 0 61005 13500.00000 0 4616935.165 -10057049.776 23005972.792 10 0 61005 14400.00000 0 7320418.637 -9294242.815 22619964.861 10 0 61005 15300.00000 0 9999608.423 -8744866.652 21795660.173 10 0 61005 16200.00000 0 12585900.880 -8409463.807 20548904.756 10 0 61005 17100.00000 0 15012778.127 -8276461.226 18903725.611 10 0 61005 18000.00000 0 17218363.077 -8322785.349 16891879.868 10 0 61005 18900.00000 0 19147795.402 -8514974.660 14552254.522 10 0 61005 19800.00000 0 20755330.156 -8810743.768 11930126.856 10 0 61005 20700.00000 0 22006071.618 -9160933.940 9076298.523 10 0 61005 21600.00000 0 22877269.668 -9511768.495 6046118.881 10 0 61005 22500.00000 0 23359123.877 -9807318.158 2898415.715 10 0 61005 23400.00000 0 23455060.784 -9992072.073 -305646.283 10 0 61005 24300.00000 0 23181471.998 -10013505.137 -3503757.054 10 0 61005 25200.00000 0 22566923.436 -9824531.953 -6633679.123 10 0 61005 26100.00000 0 21650868.580 -9385742.035 -9634467.413 10 0 61005 27000.00000 0 20481919.842 -8667319.875 -12447666.171 10 0 61005 27900.00000 0 19115751.058 -7650566.693 -15018458.517 10 0 61005 28800.00000 0 17612720.067 -6328957.493 -17296745.068 10 0 61005 29700.00000 0 16035312.233 -4708686.909 -19238129.584 10 0 61005 30600.00000 0 14445513.430 -2808679.035 -20804791.633 10 0 61005 31500.00000 0 12902223.901 -660059.392 -21966228.670 10 0 61005 32400.00000 0 11458822.439 1694889.952 -22699852.791 10 0 61005 33300.00000 0 10160983.733 4204249.151 -22991430.502 10 0 61005 34200.00000 0 9044840.664 6808390.132 -22835357.095 10 0 61005 35100.00000 0 8135568.449 9442236.551 -22234760.634 10 0 61005 36000.00000 0 7446449.396 12037759.885 -21201433.971 10 0 61005 36900.00000 0 6978456.490 14526607.486 -19755596.618 10 0 61005 37800.00000 0 6720371.936 16842752.993 -17925491.667 10 0 61005 38700.00000 0 6649434.072 18925058.688 -15746826.165 10 0 61005 39600.00000 0 6732483.709 20719643.174 -13262066.392 10 0 61005 40500.00000 0 6927559.880 22181956.070 -10519602.403 10 0 61005 41400.00000 0 7185876.084 23278473.907 -7572798.620 10 0 61005 42300.00000 0 7454092.193 23987947.415 -4478949.620 10 0 61005 43200.00000 0 7676784.878 24302149.366 -1298161.957 10 0 61005 44100.00000 0 7799011.373 24226093.236 1907815.747 10 0 61005 45000.00000 0 7768857.641 23777715.120 5076791.313 10 0 61005 45900.00000 0 7539863.117 22987033.862 8147332.675 10 0 61005 46800.00000 0 7073219.631 21894826.004 11059953.426 10 0 61005 47700.00000 0 6339651.909 20550872.232 13758257.563 10 0 61005 48600.00000 0 5320900.651 19011849.532 16190021.863 10 0 61005 49500.00000 0 4010745.863 17338957.563 18308195.835 10 0 61005 50400.00000 0 2415527.407 15595378.385 20071800.958 10 0 61005 51300.00000 0 554140.478 13843675.092 21446712.988 10 0 61005 52200.00000 0 -1542494.600 12143236.977 22406313.434 10 0 61005 53100.00000 0 -3832467.359 10547876.671 22931998.603 10 0 61005 54000.00000 0 -6264375.410 9103678.125 23013537.237 10 0 61005 54900.00000 0 -8779225.467 7847183.919 22649270.219 10 0 61005 55800.00000 0 -11312660.165 6803996.389 21846148.533 10 0 61005 56700.00000 0 -13797420.235 5987850.177 20619608.320 10 0 61005 57600.00000 0 -16165941.676 5400194.434 18993284.569 10 0 61005 58500.00000 0 -18352981.591 5030302.066 16998567.830 10 0 61005 59400.00000 0 -20298164.693 4855901.683 14674011.104 10 0 61005 60300.00000 0 -21948345.177 4844306.125 12064596.877 10 0 61005 61200.00000 0 -23259685.616 4953990.698 9220877.137 10 0 61005 62100.00000 0 -24199365.814 5136555.144 6198001.815 10 0 61005 63000.00000 0 -24746849.431 5338986.848 3054653.658 10 0 61005 63900.00000 0 -24894654.358 5506129.677 -148090.203 10 0 61005 64800.00000 0 -24648593.483 5583253.586 -3347947.855 10 0 61005 65700.00000 0 -24027474.725 5518615.370 -6482649.826 10 0 61005 66600.00000 0 -23062272.158 5265900.821 -9491159.422 10 0 61005 67500.00000 0 -21794802.585 4786443.276 -12314871.365 10 0 61005 68400.00000 0 -20275963.103 4051122.752 -14898764.279 10 0 61005 69300.00000 0 -18563604.034 3041863.374 -17192483.343 10 0 61005 70200.00000 0 -16720127.169 1752663.874 -19151331.002 10 0 61005 71100.00000 0 -14809910.985 190115.835 -20737145.625 10 0 61005 72000.00000 0 -12896671.772 -1626613.721 -21919050.357 10 0 61005 72900.00000 0 -11040872.131 -3666335.988 -22674057.312 10 0 61005 73800.00000 0 -9297286.026 -5886908.015 -22987515.274 10 0 61005 74700.00000 0 -7712822.704 -8236770.230 -22853392.332 10 0 61005 75600.00000 0 -6324700.461 -10656889.841 -22274388.315 10 0 61005 76500.00000 0 -5159046.177 -13083029.028 -21261875.220 10 0 61005 77400.00000 0 -4229978.300 -15448243.105 -19835667.363 10 0 61005 78300.00000 0 -3539210.307 -17685504.231 -18023626.228 10 0 61005 79200.00000 0 -3076189.574 -19730341.100 -15861108.279 10 0 61005 80100.00000 0 -2818763.907 -21523384.337 -13390267.073 10 0 61005 81000.00000 0 -2734345.692 -23012711.522 -10659223.840 10 0 61005 81900.00000 0 -2781522.665 -24155894.263 -7721123.239 10 0 61005 82800.00000 0 -2912045.589 -24921662.384 -4633093.304 10 0 61005 83700.00000 0 -3073107.391 -25291116.559 -1455130.356 10 0 61005 84600.00000 0 -3209816.268 -25258439.789 1751068.953 10 0 61005 85500.00000 0 -3267757.400 -24831079.244 4923305.365 10 0 61006 0.00000 0 -3195534.537 -24029392.284 8000080.771 10 0 61006 900.00000 0 -2947183.852 -22885772.295 10921786.353 10 0 61006 1800.00000 0 -2484358.357 -21443293.194 13631848.223 10 0 61006 2700.00000 0 -1778190.862 -19753928.636 16077814.482 10 0 61006 3600.00000 0 -810757.292 -17876421.777 18212359.392 10 0 61006 4500.00000 0 423921.112 -15873894.149 19994187.913 10 0 61006 5400.00000 0 1919378.919 -13811292.954 21388824.056 10 0 61006 6300.00000 0 3656732.446 -11752782.298 22369269.004 10 0 61006 7200.00000 0 5605230.336 -9759185.833 22916517.325 10 0 61006 8100.00000 0 7723307.178 -7885585.884 23019922.133 10 0 61006 9000.00000 0 9960097.952 -6179177.508 22677402.598 10 0 61006 9900.00000 0 12257352.198 -4677465.532 21895489.847 10 0 61006 10800.00000 0 14551670.285 -3406878.510 20689209.938 10 0 61006 11700.00000 0 16776970.769 -2381856.529 19081805.382 10 0 61006 12600.00000 0 18867087.889 -1604450.526 17104299.385 10 0 61006 13500.00000 0 20758392.404 -1064449.672 14794909.869 10 0 61006 14400.00000 0 22392327.462 -740031.635 12198323.114 10 0 61006 15300.00000 0 23717753.973 -598908.737 9364839.663 10 0 61006 16200.00000 0 24693007.274 -599922.131 6349407.879 10 0 61006 17100.00000 0 25287578.373 -695017.070 3210562.971 10 0 61006 18000.00000 0 25483348.222 -831515.917 9291.704 10 0 61006 18900.00000 0 25275322.025 -954592.513 -3192155.193 10 0 61006 19800.00000 0 24671831.409 -1009842.498 -6331479.424 10 0 61006 20700.00000 0 23694194.822 -945839.684 -9347555.843 10 0 61006 21600.00000 0 22375849.468 -716568.784 -12181632.733 10 0 61006 22500.00000 0 20760990.726 -283629.752 -14778487.103 10 0 61006 23400.00000 0 18902776.021 381881.368 -17087511.327 10 0 61006 24300.00000 0 16861168.754 1297896.555 -19063708.894 10 0 61006 25200.00000 0 14700513.221 2470368.979 -20668579.038 10 0 61006 26100.00000 0 12486942.863 3892779.363 -21870872.372 10 0 61006 27000.00000 0 10285731.077 5546177.639 -22647202.507 10 0 61006 27900.00000 0 8158696.055 7399759.246 -22982501.666 10 0 61006 28800.00000 0 6161768.534 9411952.594 -22870311.564 10 0 61006 29700.00000 0 4342824.179 11531972.521 -22312904.226 10 0 61006 30600.00000 0 2739870.737 13701774.879 -21321230.838 10 0 61006 31500.00000 0 1379664.958 15858330.380 -19914700.110 10 0 61006 32400.00000 0 276815.810 17936122.440 -18120791.067 10 0 61006 33300.00000 0 -566590.136 19869764.387 -15974508.297 10 0 61006 34200.00000 0 -1160827.412 21596626.358 -13517690.899 10 0 61006 35100.00000 0 -1527843.384 23059361.971 -10798189.132 10 0 61006 36000.00000 0 -1700074.134 24208229.184 -7868925.375 10 0 61006 36900.00000 0 -1718816.465 25003108.470 -4786858.292 10 0 61006 37800.00000 0 -1632226.553 25415134.402 -1611870.897 10 0 61006 38700.00000 0 -1493031.304 25427873.093 1594395.367 10 0 61006 39600.00000 0 -1356050.263 25037997.111 4769737.460 10 0 61006 40500.00000 0 -1275633.581 24255430.680 7852595.054 10 0 61006 41400.00000 0 -1303124.657 23102960.161 10783238.983 10 0 61006 42300.00000 0 -1484454.693 21615327.039 13504921.039 10 0 61006 43200.00000 0 -1857970.431 19837842.079 15964963.447 10 0 61006 44100.00000 0 -2452586.354 17824578.915 18115767.762 10 0 61006 45000.00000 0 -3286338.853 15636222.426 19915724.707 10 0 61006 45900.00000 0 -4365402.975 13337661.181 21330008.543 10 0 61006 46800.00000 0 -5683613.257 10995423.271 22331241.819 10 0 61006 47700.00000 0 -7222509.249 8675061.074 22900018.705 10 0 61006 48600.00000 0 -8951904.846 6438592.189 23025277.648 10 0 61006 49500.00000 0 -10830959.082 4342101.349 22704516.630 10 0 61006 50400.00000 0 -12809705.402 2433601.467 21943846.946 10 0 61006 51300.00000 0 -14830977.637 751241.374 20757884.081 10 0 61006 52200.00000 0 -16832654.343 -678066.273 19169477.004 10 0 61006 53100.00000 0 -18750129.805 -1839540.509 17209279.959 10 0 61006 54000.00000 0 -20518910.163 -2730914.067 14915173.644 10 0 61006 54900.00000 0 -22077227.398 -3362286.050 12331545.501 10 0 61006 55800.00000 0 -23368562.479 -3755451.304 9508441.620 10 0 61006 56700.00000 0 -24343972.073 -3942734.489 6500605.485 10 0 61006 57600.00000 0 -24964120.807 -3965377.651 3366421.280 10 0 61006 58500.00000 0 -25200932.785 -3871549.271 166781.826 10 0 61006 59400.00000 0 -25038791.647 -3714059.019 -3036096.907 10 0 61006 60300.00000 0 -24475237.269 -3547875.390 -6179891.302 10 0 61006 61200.00000 0 -23521128.253 -3427552.148 -9203391.148 10 0 61006 62100.00000 0 -22200262.072 -3404673.802 -12047701.478 10 0 61006 63000.00000 0 -20548467.787 -3525429.751 -14657400.645 10 0 61006 63900.00000 0 -18612208.799 -3828421.521 -16981630.850 10 0 61006 64800.00000 0 -16446754.009 -4342797.582 -18975098.860 10 0 61006 65700.00000 0 -14113994.199 -5086796.311 -20598966.516 10 0 61006 66600.00000 0 -11679995.450 -6066760.153 -21821613.096 10 0 61006 67500.00000 0 -9212392.515 -7276663.878 -22619254.299 10 0 61006 68400.00000 0 -6777731.577 -8698177.859 -22976405.785 10 0 61006 69300.00000 0 -4438873.830 -10301264.412 -22886182.309 10 0 61006 70200.00000 0 -2252568.352 -12045282.611 -22350427.006 10 0 61006 71100.00000 0 -267295.343 -13880555.373 -21379668.699 10 0 61006 72000.00000 0 1478530.896 -15750333.019 -19992908.599 10 0 61006 72900.00000 0 2957925.291 -17593070.799 -18217241.070 10 0 61006 73800.00000 0 4156206.182 -19344924.651 -16087316.409 10 0 61006 74700.00000 0 5071345.643 -20942360.272 -13644656.681 10 0 61006 75600.00000 0 5713783.410 -22324765.914 -10936838.503 10 0 61006 76500.00000 0 6105714.519 -23436959.260 -8016559.260 10 0 61006 77400.00000 0 6279882.860 -24231483.317 -4940605.534 10 0 61006 78300.00000 0 6277933.622 -24670595.280 -1768744.378 10 0 61006 79200.00000 0 6148395.949 -24727865.431 1437440.536 10 0 61006 80100.00000 0 5944382.456 -24389319.662 4615744.836 10 0 61006 81000.00000 0 5721103.867 -23654078.471 7704548.001 10 0 61006 81900.00000 0 5533304.362 -22534466.496 10644003.201 10 0 61006 82800.00000 0 5432726.194 -21055588.719 13377189.585 10 0 61006 83700.00000 0 5465710.444 -19254391.679 15851205.241 10 0 61006 84600.00000 0 5671034.746 -17178249.178 18018180.542 10 0 61006 85500.00000 0 6078078.594 -14883131.469 19836193.258 10 0 61007 0.00000 0 6705392.958 -12431433.988 21270068.810 10 0 61007 900.00000 0 7559734.479 -9889553.767 22292052.128 10 0 61007 1800.00000 0 8635603.996 -7325316.402 22882337.327 10 0 61007 2700.00000 0 9915310.415 -4805354.596 23029448.417 10 0 61007 3600.00000 0 11369557.446 -2392548.681 22730462.184 10 0 61007 4500.00000 0 12958530.346 -143632.448 21991069.858 10 0 61007 5400.00000 0 14633438.913 1892937.646 20825475.910 10 0 61007 6300.00000 0 16338454.132 3678762.684 19256135.127 10 0 61007 7200.00000 0 18012959.409 5186857.838 17313331.942 10 0 61007 8100.00000 0 19594023.923 6402529.397 15034608.765 10 0 61007 9000.00000 0 21018995.968 7323735.996 12464052.894 10 0 61007 9900.00000 0 22228108.482 7960918.982 9651454.388 10 0 61007 10800.00000 0 23166987.786 8336308.904 6651349.997 10 0 61007 11700.00000 0 23788959.918 8482737.091 3521970.733 10 0 61007 12600.00000 0 24057056.797 8442002.234 324113.066 10 0 61007 13500.00000 0 23945636.528 8262860.950 -2880044.412 10 0 61007 14400.00000 0 23441548.111 7998727.576 -6028155.516 10 0 61007 15300.00000 0 22544789.776 7705181.121 -9058927.762 10 0 61007 16200.00000 0 21268631.620 7437385.910 -11913325.680 10 0 61007 17100.00000 0 19639195.882 7247536.368 -14535731.571 10 0 61007 18000.00000 0 17694511.397 7182435.612 -16875039.901 10 0 61007 18900.00000 0 15483081.156 7281311.865 -18885662.922 10 0 61007 19800.00000 0 13062022.693 7573966.586 -20528427.096 10 0 61007 20700.00000 0 10494859.174 8079333.984 -21771342.148 10 0 61007 21600.00000 0 7849053.817 8804513.927 -22590227.456 10 0 61007 22500.00000 0 5193390.997 9744319.958 -22969183.460 10 0 61007 23400.00000 0 2595313.716 10881362.110 -22900899.036 10 0 61007 24300.00000 0 118328.663 12186661.372 -22386789.177 10 0 61007 25200.00000 0 -2180413.044 13620770.056 -21436960.719 10 0 61007 26100.00000 0 -4252258.965 15135350.823 -20070007.303 10 0 61007 27000.00000 0 -6058833.803 16675147.734 -18312638.110 10 0 61007 27900.00000 0 -7573380.261 18180266.128 -16199148.157 10 0 61007 28800.00000 0 -8781607.917 19588665.121 -13770741.040 10 0 61007 29700.00000 0 -9682016.614 20838757.637 -11074717.891 10 0 61007 30600.00000 0 -10285683.034 21872008.438 -8163548.895 10 0 61007 31500.00000 0 -10615521.710 22635420.805 -5093846.057 10 0 61007 32400.00000 0 -10705053.840 23083807.409 -1925257.728 10 0 61007 33300.00000 0 -10596737.822 23181750.150 1280693.097 10 0 61007 34200.00000 0 -10339933.663 22905167.009 4461803.720 10 0 61007 35100.00000 0 -9988588.515 22242420.630 7556396.485 10 0 61007 36000.00000 0 -9598741.953 21194922.713 10504509.946 10 0 61007 36900.00000 0 -9225956.726 19777209.410 13249053.578 10 0 61007 37800.00000 0 -8922783.432 18016485.013 15736904.206 10 0 61007 38700.00000 0 -8736365.659 15951653.189 17919923.739 10 0 61007 39600.00000 0 -8706285.958 13631876.089 19755879.518 10 0 61007 40500.00000 0 -8862742.634 11114720.910 21209250.665 10 0 61007 41400.00000 0 -9225133.463 8463970.120 22251906.025 10 0 61007 42300.00000 0 -9801105.463 5747185.185 22863641.711 10 0 61007 43200.00000 0 -10586110.601 3033123.377 23032568.704 10 0 61007 44100.00000 0 -11563486.531 389113.136 22755343.593 10 0 61007 45000.00000 0 -12705059.852 -2121504.904 22037238.095 10 0 61007 45900.00000 0 -13972247.921 -4441766.761 20892045.701 10 0 61007 46800.00000 0 -15317614.706 -6523206.189 19341826.518 10 0 61007 47700.00000 0 -16686817.206 -8327620.986 17416494.107 10 0 61007 48600.00000 0 -18020862.571 -9828411.924 15153250.987 10 0 61007 49500.00000 0 -19258582.763 -11011438.935 12595882.195 10 0 61007 50400.00000 0 -20339223.917 -11875358.934 9793919.190 10 0 61007 51300.00000 0 -21205042.173 -12431431.077 6801689.032 10 0 61007 52200.00000 0 -21803796.802 -12702797.419 3677266.313 10 0 61007 53100.00000 0 -22091035.026 -12723269.007 481347.696 10 0 61007 54000.00000 0 -22032071.158 -12535668.495 -2723929.206 10 0 61007 54900.00000 0 -21603575.119 -12189799.353 -5876199.297 10 0 61007 55800.00000 0 -20794701.564 -11740127.931 -8914091.474 10 0 61007 56700.00000 0 -19607710.179 -11243277.157 -11778433.343 10 0 61007 57600.00000 0 -18058049.232 -10755438.931 -14413414.585 10 0 61007 58500.00000 0 -16173897.329 -10329815.995 -16767685.095 10 0 61007 59400.00000 0 -13995181.417 -10014202.840 -18795365.442 10 0 61007 60300.00000 0 -11572111.425 -9848809.341 -20456949.056 10 0 61007 61200.00000 0 -8963292.504 -9864420.347 -21720077.918 10 0 61007 62100.00000 0 -6233493.728 -10080970.006 -22560176.252 10 0 61007 63000.00000 0 -3451166.569 -10506591.764 -22960929.804 10 0 61007 63900.00000 0 -685816.928 -11137184.594 -22914601.455 10 0 61007 64800.00000 0 1994659.539 -11956513.925 -22422177.359 10 0 61007 65700.00000 0 4526567.772 -12936842.926 -21493341.147 10 0 61007 66600.00000 0 6852821.617 -14040067.250 -20146277.242 10 0 61007 67500.00000 0 8925070.344 -15219305.027 -18407307.629 10 0 61007 68400.00000 0 10705455.687 -16420874.570 -16310369.720 10 0 61007 69300.00000 0 12167927.422 -17586575.964 -13896346.053 10 0 61007 70200.00000 0 13299064.229 -18656179.898 -11212259.466 10 0 61007 71100.00000 0 14098367.548 -19570018.472 -8310349.952 10 0 61007 72000.00000 0 14578018.268 -20271568.507 -5247051.811 10 0 61007 72900.00000 0 14762108.755 -20709918.417 -2081891.508 10 0 61007 73800.00000 0 14685384.688 -20842014.748 1123671.819 10 0 61007 74700.00000 0 14391551.605 -20634594.011 4307440.229 10 0 61007 75600.00000 0 13931219.149 -20065718.855 7407681.829 10 0 61007 76500.00000 0 13359570.832 -19125854.395 10364323.202 10 0 61007 77400.00000 0 12733858.308 -17818439.911 13120106.484 10 0 61007 78300.00000 0 12110825.973 -16159932.230 15621689.206 10 0 61007 79200.00000 0 11544174.220 -14179319.057 17820666.416 10 0 61007 80100.00000 0 11082167.596 -11917122.430 19674496.251 10 0 61007 81000.00000 0 10765487.709 -9423933.311 21147312.267 10 0 61007 81900.00000 0 10625420.300 -6758537.424 22210607.988 10 0 61007 82800.00000 0 10682451.885 -3985709.018 22843781.547 10 0 61007 83700.00000 0 10945334.375 -1173762.590 23034530.779 10 0 61007 84600.00000 0 11410656.768 1608037.641 22779091.701 10 0 61007 85500.00000 0 12062942.215 4292104.939 22082315.910 10 0 61008 0.00000 0 12875267.031 6815086.592 20957585.243 10 0 61008 900.00000 0 13810377.345 9120246.696 19426563.946 10 0 61008 1800.00000 0 14822256.801 11159574.260 17518793.657 10 0 61008 2700.00000 0 15858082.489 12895534.425 15271135.694 10 0 61008 3600.00000 0 16860487.349 14302387.114 12727071.349 10 0 61008 4500.00000 0 17770035.475 15367019.632 9935871.797 10 0 61008 5400.00000 0 18527806.857 16089258.141 6951652.516 10 0 61008 6300.00000 0 19077982.894 16481644.709 3832329.579 10 0 61008 7200.00000 0 19370323.320 16568688.947 638497.540 10 0 61008 8100.00000 0 19362429.129 16385625.513 -2567749.403 10 0 61008 9000.00000 0 19021694.598 15976729.771 -5724029.770 10 0 61008 9900.00000 0 18326864.271 15393262.869 -8768896.376 10 0 61008 10800.00000 0 17269127.244 14691133.581 -11643042.370 10 0 61008 11700.00000 0 15852700.634 13928376.482 -14290467.150 10 0 61008 12600.00000 0 14094875.796 13162554.154 -16659578.220 10 0 61008 13500.00000 0 12025523.753 12448194.372 -18704206.447 10 0 61008 14400.00000 0 9686079.349 11834371.828 -20384514.043 10 0 61008 15300.00000 0 7128045.888 11362537.615 -21667776.865 10 0 61008 16200.00000 0 4411082.322 11064689.077 -22529025.443 10 0 61008 17100.00000 0 1600752.784 10961957.864 -22951532.086 10 0 61008 18000.00000 0 -1233967.596 11063676.093 -22927134.702 10 0 61008 18900.00000 0 -4023326.480 11366959.963 -22456391.326 10 0 61008 19800.00000 0 -6699457.929 11856828.106 -21548562.741 10 0 61008 20700.00000 0 -9198964.946 12506849.117 -20221424.091 10 0 61008 21600.00000 0 -11465313.742 13280290.273 -18500909.661 10 0 61008 22500.00000 0 -13450940.635 14131718.186 -16420598.312 10 0 61008 23400.00000 0 -15118984.705 15008983.060 -14021050.169 10 0 61008 24300.00000 0 -16444575.290 15855502.067 -11349008.067 10 0 61008 25200.00000 0 -17415622.201 16612744.794 -8456479.810 10 0 61008 26100.00000 0 -18033077.523 17222815.360 -5399719.767 10 0 61008 27000.00000 0 -18310660.161 17631021.829 -2238130.111 10 0 61008 27900.00000 0 -18274056.782 17788324.372 966896.407 10 0 61008 28800.00000 0 -17959634.797 17653558.872 4153169.250 10 0 61008 29700.00000 0 -17412723.241 17195342.454 7258905.002 10 0 61008 30600.00000 0 -16685535.356 16393580.907 10223921.036 10 0 61008 31500.00000 0 -15834821.257 15240514.911 12990794.924 10 0 61008 32400.00000 0 -14919349.995 13741261.322 15505967.657 10 0 61008 33300.00000 0 -13997326.931 11913826.850 17720770.080 10 0 61008 34200.00000 0 -13123854.594 9788593.381 19592353.668 10 0 61008 35100.00000 0 -12348542.951 7407295.844 21084508.757 10 0 61008 36000.00000 0 -11713368.438 4821534.352 22168355.659 10 0 61008 36900.00000 0 -11250870.592 2090881.247 22822896.361 10 0 61008 37800.00000 0 -10982760.993 -719339.875 23035417.062 10 0 61008 38700.00000 0 -10919002.193 -3540512.822 22801734.353 10 0 61008 39600.00000 0 -11057394.991 -6303325.079 22126280.464 10 0 61008 40500.00000 0 -11383691.488 -8940395.958 21022025.661 10 0 61008 41400.00000 0 -11872229.805 -11388829.410 19510238.604 10 0 61008 42300.00000 0 -12487064.744 -13592586.963 17620088.244 10 0 61008 43200.00000 0 -13183548.094 -15504583.329 15388093.622 10 0 61008 44100.00000 0 -13910293.397 -17088418.165 12857430.758 10 0 61008 45000.00000 0 -14611443.605 -18319672.041 10077108.590 10 0 61008 45900.00000 0 -15229146.940 -19186712.431 7101028.687 10 0 61008 46800.00000 0 -15706136.946 -19690975.662 3986945.939 10 0 61008 47700.00000 0 -15988307.708 -19846712.503 795349.859 10 0 61008 48600.00000 0 -16027174.796 -19680207.682 -2411711.934 10 0 61008 49500.00000 0 -15782116.747 -19228505.826 -5571844.933 10 0 61008 50400.00000 0 -15222300.731 -18537697.455 -8623529.354 10 0 61008 51300.00000 0 -14328209.151 -17660837.577 -11507327.450 10 0 61008 52200.00000 0 -13092700.629 -16655585.242 -14167051.886 10 0 61008 53100.00000 0 -11521558.636 -15581664.548 -16550871.215 10 0 61008 54000.00000 0 -9633502.770 -14498255.287 -18612329.817 10 0 61008 54900.00000 0 -7459660.602 -13461424.416 -20311261.544 10 0 61008 55800.00000 0 -5042521.071 -12521707.778 -21614578.540 10 0 61008 56700.00000 0 -2434412.384 -11721944.861 -22496919.488 10 0 61008 57600.00000 0 304432.406 -11095458.465 -22941144.516 10 0 61008 58500.00000 0 3108141.550 -10664656.202 -22938667.208 10 0 61008 59400.00000 0 5907707.983 -10440112.617 -22489617.544 10 0 61008 60300.00000 0 8633625.578 -10420170.138 -21602833.002 10 0 61008 61200.00000 0 11218548.379 -10591074.862 -20295678.507 10 0 61008 62100.00000 0 13599862.233 -10927640.512 -18593699.258 10 0 61008 63000.00000 0 15722062.018 -11394411.396 -16530113.777 10 0 61008 63900.00000 0 17538836.031 -11947274.171 -14145157.590 10 0 61008 64800.00000 0 19014771.555 -12535449.230 -11485290.943 10 0 61008 65700.00000 0 20126611.719 -13103776.619 -8602286.511 10 0 61008 66600.00000 0 20864012.644 -13595199.055 -5552215.462 10 0 61008 67500.00000 0 21229771.078 -13953336.498 -2394352.174 10 0 61008 68400.00000 0 21239514.859 -14125043.075 809980.639 10 0 61008 69300.00000 0 20920871.178 -14062838.166 3998603.479 10 0 61008 70200.00000 0 20312149.343 -13727109.006 7109684.933 10 0 61008 71100.00000 0 19460594.925 -13087992.046 10082936.427 10 0 61008 72000.00000 0 18420289.822 -12126854.012 12860773.878 10 0 61008 72900.00000 0 17249787.146 -10837310.520 15389424.215 10 0 61008 73800.00000 0 16009580.507 -9225739.521 17619956.111 10 0 61008 74700.00000 0 14759513.680 -7311267.838 19509215.921 10 0 61008 75600.00000 0 13556238.614 -5125230.892 21020651.870 10 0 61008 76500.00000 0 12450827.391 -2710127.265 22125011.740 10 0 61008 77400.00000 0 11486637.006 -118110.453 22800901.664 10 0 61008 78300.00000 0 10697515.208 2590920.996 23035196.141 10 0 61008 79200.00000 0 10106421.481 5351557.510 22823291.959 10 0 61008 80100.00000 0 9724520.132 8095345.859 22169201.310 10 0 61008 81000.00000 0 9550783.065 10753389.552 21085482.084 10 0 61008 81900.00000 0 9572118.923 13258976.212 19593005.997 10 0 61008 82800.00000 0 9764023.564 15550124.478 17720568.023 10 0 61008 83700.00000 0 10091725.328 17571945.828 15504343.374 10 0 61008 84600.00000 0 10511777.844 19278723.887 12987201.044 10 0 61008 85500.00000 0 10974034.292 20635624.859 10217885.793 99